RH
15 14 13 18 19 15 20 51 27 27 24 21 20 23 29 28 26 29 30 30 32 33 35 38 42 53 61 66 67 78 79 77
13 14 15 15 14 21 23 24 24 22 24 23 25 18 30 36 33 31 29 29 29 30 31 35 38 45 55 60 62 68 75 73
14 17 16 19 18 20 17 19 18 22 16 14 19 24 28 34 32 28 30 27 27 28 28 32 36 42 53 58 60 60 70 71
18 16 10 13 14 18 20 21 24 15 14 16 13 14 23 27 26 29 28 27 25 24 27 32 37 40 53 56 60 58 64 68
21 18 19 17 18 13 16 20 17 20 18 14 14 17 24 24 30 30 29 30 28 32 31 32 37 40 52 55 60 58 64 68
30 23 21 19 16 15 14 19 16 15 16 16 16 15 18 34 33 36 35 31 33 34 35 34 37 42 51 56 58 59 64 69
43 35 28 17 16 13 16 14 16 13 14 11 15 16 15 16 26 30 34 31 32 27 36 37 39 44 48 55 60 59 65 70
49 29 24 23 16 15 12 12 13 13 15 12 11 14 14 12 15 32 30 28 26 24 27 32 35 43 44 55 60 62 67 71
70 41 36 28 18 14 13 12 12 14 13 13 12 13 13 14 20 22 28 24 26 23 22 24 30 37 44 52 55 66 70 70
70 55 50 21 13 12 13 15 16 15 15 16 13 11 14 17 19 25 26 26 24 20 28 31 32 36 39 47 58 67 71 73
68 67 44 25 21 14 17 17 19 14 15 16 17 22 18 20 21 18 23 25 27 29 24 28 32 37 42 49 56 67 72 73
65 62 52 37 60 60 19 19 32 20 19 18 22 22 16 18 24 22 21 25 32 42 45 39 36 38 45 50 56 67 70 71
58 59 48 73 85 69 36 20 46 35 28 30 23 24 23 29 41 38 35 26 26 44 50 40 43 44 49 50 55 56 63 66
61 65 68 82 84 88 84 87 58 49 48 49 57 69 67 77 66 82 94 96 86 38 35 55 53 45 50 53 49 52 56 64
61 65 91 85 94 90 93 97 97 94 92 84 93 99 98 98 97 87 88 97 98 98 86 62 54 59 49 49 50 54 58 61
84 82 92 87 87 90 89 91 88 91 94 95 97 92 90 90 90 81 78 73 92 96 97 97 94 93 71 48 52 56 60 61
86 94 91 87 87 91 80 82 81 82 86 88 85 92 93 96 95 91 89 85 77 86 89 89 91 92 84 89 75 63 59 73
92 94 93 96 92 85 87 84 84 85 90 93 91 96 96 99 99 99 98 94 91 84 83 86 88 89 78 88 98 85 88 93
96 94 90 92 92 80 86 80 78 79 80 84 87 93 94 97 98 100 94 95 96 94 87 92 95 92 91 88 98 97 95 99
Wind_Speed
15 7 16 7 11 13 3 2 3 6 8 6 8 12 9 16 17 21 24 25 27 25 23 23 21 22 23 22 21 21 21 18
12 7 8 15 9 4 2 11 12 5 7 6 7 16 10 10 15 18 21 22 24 23 24 24 23 21 22 23 24 22 22 19
6 9 19 6 9 3 7 8 10 6 12 9 10 10 11 11 17 19 19 21 23 22 23 20 19 19 22 21 22 21 19 18
13 8 20 14 17 9 6 11 6 8 14 1 15 16 11 11 16 20 21 22 23 24 19 17 19 19 21 22 22 21 20 19
7 5 1 9 9 20 9 4 21 8 8 5 10 7 8 10 10 12 15 13 12 8 12 17 18 19 20 21 22 21 20 19
7 6 1 9 12 15 17 11 15 17 8 5 7 11 8 9 10 9 9 13 12 10 10 14 17 20 20 22 21 20 20 20
7 16 19 15 13 23 20 21 17 17 13 16 11 12 11 11 8 7 9 12 11 14 12 14 15 18 18 18 18 19 20 20
7 11 13 18 19 25 24 22 16 12 9 9 14 9 6 11 9 10 13 18 20 22 19 19 22 22 22 20 19 20 20 23
7 9 15 12 29 22 20 15 18 20 10 8 10 9 12 12 11 11 12 16 12 19 21 21 20 21 21 21 20 21 22 20
5 7 9 11 13 17 20 8 9 5 10 12 16 16 14 12 11 11 11 11 11 12 10 10 15 17 18 17 19 21 20 19
3 4 12 16 8 12 11 12 7 13 10 8 11 1 8 8 8 12 11 12 13 14 14 14 14 17 16 16 18 18 19 20
5 5 7 2 13 19 5 18 12 13 12 10 8 5 11 8 8 11 9 5 7 10 7 8 11 12 15 17 18 21 21 22
9 5 10 7 24 10 8 13 8 10 10 9 8 8 6 6 4 2 3 6 3 3 9 15 10 11 15 16 19 21 20 18
7 7 10 16 13 7 12 15 3 8 6 9 6 7 7 9 9 9 9 9 9 2 5 6 4 13 17 17 22 19 17 17
9 9 4 2 6 13 12 6 8 4 4 9 9 10 9 9 11 10 9 6 5 6 6 5 3 6 10 20 16 15 15 18
7 4 5 10 14 12 11 8 11 9 13 13 15 10 10 8 8 9 8 9 5 8 9 9 12 10 9 11 9 12 17 19
4 2 4 9 8 12 8 7 13 15 15 14 12 10 8 6 7 7 6 6 7 8 6 6 4 7 10 13 6 10 12 10
7 6 5 6 10 14 6 8 10 11 13 12 12 9 7 7 5 4 5 5 6 7 8 9 8 7 5 8 10 7 8 9
6 6 17 13 6 13 2 8 11 14 11 13 10 8 7 5 6 6 10 10 9 5 5 7 8 8 7 8 9 4 9 8
Wind_Direction
195 187 175 190 190 195 135 200 15 238 265 294 213 230 204 215 216 208 208 205 208 209 205 203 197 193 190 188 194 192 195 194
205 168 214 195 163 168 348 215 241 260 247 228 193 225 228 191 196 207 212 207 211 209 207 205 198 192 191 193 192 192 193 194
138 192 199 193 198 187 151 173 223 232 258 182 208 213 210 209 214 213 213 213 206 209 208 200 195 193 195 193 197 196 192 193
212 218 201 203 211 175 188 227 249 229 236 7 198 208 193 213 222 225 218 213 209 206 199 192 195 189 193 194 195 198 193 191
333 303 328 213 190 199 204 152 230 207 252 232 182 221 223 222 235 233 216 209 205 184 180 186 191 192 192 195 200 195 192 193
257 269 127 206 228 213 204 221 232 229 233 220 208 213 210 223 245 228 202 190 182 164 186 190 193 193 194 197 194 193 192 193
311 295 291 262 261 227 212 216 212 229 198 230 212 206 215 212 217 220 216 207 197 196 190 182 193 201 202 198 193 193 192 194
294 258 265 265 254 252 227 215 228 231 215 213 224 229 243 227 211 205 212 211 204 203 196 192 195 195 193 192 192 189 193 201
286 316 321 273 236 246 247 220 192 221 197 193 251 216 222 231 222 201 201 200 198 219 204 210 208 191 194 190 183 190 197 198
262 310 230 265 216 229 230 224 197 146 202 194 206 233 221 209 190 218 209 211 212 206 223 218 197 195 196 187 187 191 196 195
221 258 294 303 283 191 195 234 215 194 207 210 219 181 271 227 218 213 215 221 199 206 217 210 195 193 187 187 190 190 194 197
162 226 249 238 324 328 247 229 194 177 197 208 124 176 244 226 214 220 226 221 235 200 195 197 201 181 180 192 191 195 195 199
210 232 281 342 332 309 186 239 180 177 189 155 175 198 235 148 229 269 273 271 267 317 200 190 170 174 191 186 200 208 202 197
223 202 257 4 342 2 313 295 307 115 115 116 96 42 32 31 33 42 52 36 26 42 275 336 294 178 190 197 209 203 200 194
201 206 179 276 300 301 308 313 332 27 41 100 85 59 39 29 40 36 31 32 43 86 63 6 251 220 218 217 207 197 188 196
138 234 211 40 340 330 330 358 35 23 60 63 84 67 62 50 40 45 19 20 11 31 49 53 19 360 309 263 239 209 197 196
157 182 183 74 344 318 324 13 54 50 57 65 69 51 55 45 19 28 30 11 360 19 20 11 48 34 357 346 274 211 224 201
189 169 108 63 330 306 263 64 61 69 58 52 59 62 48 42 20 17 25 10 13 4 3 347 357 340 346 347 325 219 184 175
153 165 119 118 197 235 40 78 93 87 74 66 48 49 39 30 12 343 31 26 24 23 346 329 341 328 323 337 335 269 153 118